• MPC Preparation (Info)

  • MPEC 2016-G95 : 2016 GC134

    The following Minor Planet Electronic Circular may be linked-to from your own Web pages, but must not otherwise be redistributed electronically.

    A form allowing access to any MPEC is at the bottom of this page.


    Read MPEC 2016-G94 Read MPEC 2016-G96


    M.P.E.C. 2016-G95                                Issued 2016 Apr. 6, 15:08 UT
    
         The Minor Planet Electronic Circulars contain information on unusual
             minor planets and routine data on comets.  They are published
        on behalf of Division F of the International Astronomical Union by the
              Minor Planet Center, Smithsonian Astrophysical Observatory,
                              Cambridge, MA 02138, U.S.A.
    
                 Prepared using the Tamkin Foundation Computer Network
    
                                  MPC@CFA.HARVARD.EDU
                URL https://www.minorplanetcenter.net/    ISSN 1523-6714
    
                                      2016 GC134
    
    Observations:
         K16GD4C* C2016 04 03.44310 13 54 34.006-14 31 43.21         20.8 wLEG095F51
         K16GD4C  C2016 04 03.45547 13 54 40.597-14 30 41.25         19.8 wLEG095F51
         K16GD4C  C2016 04 03.46785 13 54 47.205-14 29 38.37         19.9 wLEG095F51
         K16GD4C _C2016 04 04.47132814 05 54.820-12 57 23.77         19.7 RtEG095568
         K16GD4C _C2016 04 04.47236314 05 55.439-12 57 17.64         19.8 RtEG095568
         K16GD4C _C2016 04 04.47339814 05 56.060-12 57 11.50         19.9 RtEG095568
         K16GD4C KC2016 04 06.47583 14 31 45.88 -09 08 16.1                oEG095291
         K16GD4C KC2016 04 06.47662 14 31 46.51 -09 08 09.5          20.3 RoEG095291
         K16GD4C KC2016 04 06.47742 14 31 47.13 -09 08 03.4          19.7 RoEG095291
    
    Observer details:
    291 LPL/Spacewatch II.  Observer T. H. Bressi.  1.8-m f/2.7 reflector + CCD.
    568 Mauna Kea.  Observers R. J. Wainscoat, C. Wipper.  Measurers M. Micheli,
        R. J. Wainscoat.  3.6-m Canada-France-Hawaii Telescope + CCD.
    F51 Pan-STARRS 1, Haleakala.  Observers B. Gibson, T. Goggia, N. Primak,
        A. Schultz, M. Willman.  Measurers K. Chambers, S. Chastel, L. Denneau,
        H. Flewelling, M. Huber, E. Lilly, E. Magnier, R. Wainscoat, C. Waters,
        R. Weryk.  1.8-m Ritchey-Chretien + CCD.
    
    Orbital elements:
    2016 GC134                                               Earth MOID = 0.0185 AU
    Epoch 2016 Jan. 13.0 TT = JDT 2457400.5                 MPC
    M 260.03212              (2000.0)            P               Q
    n   0.77825644     Peri.   48.20645     -0.44243972     +0.89651361
    a   1.1705435      Node   195.57924     -0.84572939     -0.42549234
    e   0.1581074      Incl.    4.82557     -0.29831005     -0.12336778
    P   1.27           H   26.4           G   0.15           U   7
    Residuals in seconds of arc
    160403 F51  0.1+  0.1+    160404 568  0.1-  0.1+    160406 291  0.1-  0.1-
    160403 F51  0.1-  0.2-    160404 568  0.1-  0.1+    160406 291  0.1+  0.2+
    160403 F51  0.0   0.0     160404 568  0.0   0.2+    160406 291  0.1+  0.2-
    
    Ephemeris:
    2016 GC134               a,e,i = 1.17, 0.16, 5                   q = 0.9855
    Date    TT    R. A. (2000) Decl.     Delta      r     Elong.  Phase     V
    2016 03 07    12 06 11.2 -22 53 11   0.1191  1.0959   148.8    28.0    23.2
    ...
    2016 03 22    12 38 37.8 -22 30 27   0.06946 1.0606   156.7    21.8    21.8
    ...
    2016 03 30    13 17 01.0 -19 05 38   0.04698 1.0434   161.5    17.6    20.8
    ...
    2016 04 05    14 12 13.9 -12 00 48   0.03289 1.0315   160.5    18.9    20.0
    2016 04 06    14 25 14.5 -10 05 55   0.03093 1.0296   158.7    20.7    19.9
    2016 04 07    14 39 39.8 -07 53 49   0.02914 1.0278   156.3    23.1    19.9
    ...
    2016 04 13    16 38 01.3 +11 02 48   0.02333 1.0173   128.2    50.7    20.2
    ...
    2016 04 21    19 29 14.6 +29 40 28   0.03140 1.0053    89.8    88.4    22.0
    ...
    2016 05 06    21 41 58.5 +33 20 53   0.06448 0.9897    70.9   105.5    24.3
    
    A. U. Tomatic                (C) Copyright 2016 MPC           M.P.E.C. 2016-G95
    

    Read MPEC 2016-G94 Read MPEC 2016-G96


    MPEC number:

    Enter an MPEC number in one of the following forms:

    • 1997-B01 (the full form)
    • J97B01 (the packed version of the full form)
    • B01 (the abbreviated form)